DW1549 Fauske NO current weather conditions

sailwx.info

Wind from 249 at 4 knots gusting 6

Air temperature 16.7° C
Dewpoint 9.6° C

Last reported at 2016-Aug-24 15:49 UTC.
Time now 2016-Aug-24 16:11 UTC

Location: N 67°16' E 015°25'.
View on Google Maps.

See reports from other nearby stations

  
Tides and Currents Weather Stations Pressure Air Temp Water Temp Dewpoint Dewpoint Depression Visibility Wind Speed Wind Dir Waves Ship Positions
date/time (UTC)wind fromknots sea level pressurealtimeterstation pressurevisibilityair tempwater tempwave heightnotes
2016-Aug-24 15:49 249 4 gusting 6 16.7
2016-Aug-24 15:39 202 1 gusting 12 17.2
2016-Aug-24 15:29 152 4 gusting 14 17.8
2016-Aug-24 15:19 125 6 gusting 10 17.8
2016-Aug-24 15:09 122 6 gusting 12 17.8
2016-Aug-24 14:59 145 6 gusting 11 17.8
2016-Aug-24 14:49 114 4 gusting 12 17.8
2016-Aug-24 14:39 124 5 gusting 10 17.8
2016-Aug-24 14:29 123 5 gusting 12 17.8
2016-Aug-24 14:19 129 7 gusting 12 17.8
2016-Aug-24 14:09 132 5 gusting 10 18.3
2016-Aug-24 13:59 129 5 gusting 10 18.3
2016-Aug-24 13:49 128 4 gusting 10 18.3
2016-Aug-24 13:39 139 0 gusting 4 18.3
2016-Aug-24 13:29 166 18.9
2016-Aug-24 13:19 165 18.3
2016-Aug-24 13:09 163 17.8
2016-Aug-24 12:59 163 18.3
2016-Aug-24 12:49 203 18.3
2016-Aug-24 12:39 203 18.3
2016-Aug-24 12:29 203 0 gusting 2 18.3
2016-Aug-24 12:19 182 17.8
2016-Aug-24 12:09 035 17.2
2016-Aug-24 11:59 098 17.2
2016-Aug-24 11:49 057 1 gusting 4 17.2
2016-Aug-24 11:39 122 0 gusting 4 16.7
2016-Aug-24 11:29 120 0 gusting 2 17.2
2016-Aug-24 11:19 134 16.7
2016-Aug-24 11:09 142 0 gusting 2 15.6
2016-Aug-24 10:59 163 15.6
2016-Aug-24 10:49 161 1 gusting 4 15.0
2016-Aug-24 10:39 160 15.0
2016-Aug-24 10:29 160 0 gusting 2 15.0
2016-Aug-24 10:19 160 15.0
2016-Aug-24 10:09 160 0 gusting 5 15.0
2016-Aug-24 09:59 159 15.0
2016-Aug-24 09:49 151 0 gusting 4 14.4
2016-Aug-24 09:39 149 14.4
2016-Aug-24 09:29 140 13.9
2016-Aug-24 09:19 137 0 gusting 2 13.9
2016-Aug-24 09:09 137 13.9
2016-Aug-24 08:59 136 0 gusting 2 13.9
2016-Aug-24 08:49 130 1 gusting 2 13.9
2016-Aug-24 08:39 129 13.9
2016-Aug-24 08:29 128 13.9
2016-Aug-24 08:19 128 1 gusting 2 13.9
2016-Aug-24 08:09 128 0 gusting 2 13.3
2016-Aug-24 07:59 128 13.9
2016-Aug-24 07:49 128 13.3
2016-Aug-24 07:39 128 12.8
2016-Aug-24 07:29 128 0 gusting 2 12.8
2016-Aug-24 07:19 128 0 gusting 2 12.8
2016-Aug-24 07:09 128 12.8
2016-Aug-24 06:59 128 0 gusting 2 11.7
2016-Aug-24 06:49 128 1 gusting 5 11.1
2016-Aug-24 06:39 128 2 gusting 5 11.1
2016-Aug-24 06:29 128 1 gusting 6 10.6
2016-Aug-24 06:19 138 1 gusting 6 10.6
2016-Aug-24 06:09 168 0 gusting 5 10.0
2016-Aug-24 05:59 245 9.4
2016-Aug-24 05:49 245 9.4
2016-Aug-24 05:39 245 0 gusting 1 9.4
2016-Aug-24 05:29 245 9.4
2016-Aug-24 05:19 245 9.4
2016-Aug-24 05:09 245 9.4
2016-Aug-24 04:59 245 9.4
2016-Aug-24 04:49 245 8.9
2016-Aug-24 04:39 245 8.9
2016-Aug-24 04:29 245 8.9
2016-Aug-24 04:19 245 8.9
2016-Aug-24 04:09 245 8.9
2016-Aug-24 03:59 245 8.9
2016-Aug-24 03:49 245 8.9
2016-Aug-24 03:39 245 8.9
2016-Aug-24 03:29 245 8.9
2016-Aug-24 03:19 245 8.9
2016-Aug-24 03:09 245 8.9
2016-Aug-24 02:59 245 8.9
2016-Aug-24 02:49 245 8.9
2016-Aug-24 02:39 245 8.9
2016-Aug-24 02:29 245 8.9
2016-Aug-24 02:19 245 8.9
2016-Aug-24 02:09 245 8.9
2016-Aug-24 01:59 245 8.9
2016-Aug-24 01:49 245 8.9
2016-Aug-24 01:39 245 8.9
2016-Aug-24 01:29 245 8.9
2016-Aug-24 01:19 245 8.9
2016-Aug-24 01:09 245 8.9
2016-Aug-24 00:59 245 8.9
2016-Aug-24 00:49 245 8.9
2016-Aug-24 00:39 245 8.9
2016-Aug-24 00:29 245 8.9
2016-Aug-24 00:19 245 8.9
2016-Aug-24 00:09 245 8.9
2016-Aug-23 23:59 245 8.9
2016-Aug-23 23:49 245 8.9
2016-Aug-23 23:39 245 8.9
2016-Aug-23 23:29 245 8.9
2016-Aug-23 23:19 245 8.9
2016-Aug-23 23:09 245 8.9
2016-Aug-23 22:59 245 9.4
2016-Aug-23 22:49 245 9.4
2016-Aug-23 22:39 245 9.4
2016-Aug-23 22:29 245 9.4
2016-Aug-23 22:19 245 9.4
2016-Aug-23 22:09 245 9.4
2016-Aug-23 21:59 245 9.4
2016-Aug-23 21:49 245 9.4
2016-Aug-23 21:39 245 9.4
2016-Aug-23 21:29 245 10.0
2016-Aug-23 21:19 245 10.0
2016-Aug-23 21:09 245 10.0
2016-Aug-23 20:59 245 10.0
2016-Aug-23 20:49 245 10.0
2016-Aug-23 20:39 245 10.0
2016-Aug-23 20:29 245 10.0
2016-Aug-23 20:19 245 10.0
2016-Aug-23 20:09 245 10.0
2016-Aug-23 19:59 245 10.0
2016-Aug-22 21:49 247 0 gusting 5 13.3
2016-Aug-22 21:39 255 13.3
2016-Aug-22 21:29 257 0 gusting 6 13.3
2016-Aug-22 21:19 234 13.3
2016-Aug-22 21:09 251 1 gusting 6 13.3
2016-Aug-22 20:59 299 0 gusting 6 13.3
2016-Aug-22 20:49 281 13.3
2016-Aug-22 20:39 260 0 gusting 4 13.3
2016-Aug-22 20:29 263 13.3
2016-Aug-22 20:19 262 13.3
2016-Aug-22 20:09 262 0 gusting 5 13.3
2016-Aug-22 19:59 263 0 gusting 8 13.3
2016-Aug-22 19:49 253 1 gusting 6 13.3
2016-Aug-22 19:39 242 1 gusting 7 13.3
2016-Aug-22 19:29 259 0 gusting 7 13.9
2016-Aug-22 19:19 257 0 gusting 6 13.9
2016-Aug-22 19:09 268 1 gusting 7 13.9
2016-Aug-22 18:59 269 14.4
2016-Aug-22 18:49 250 2 gusting 6 14.4
2016-Aug-22 18:39 247 15.0
2016-Aug-22 18:29 243 0 gusting 6 15.0
2016-Aug-22 18:19 242 2 gusting 8 15.6
2016-Aug-22 18:09 258 2 gusting 8 15.6
2016-Aug-22 17:59 249 1 gusting 6 16.1
2016-Aug-22 17:49 241 2 gusting 6 16.1
2016-Aug-22 17:39 238 0 gusting 7 16.7
2016-Aug-22 17:29 241 0 gusting 7 16.7
2016-Aug-22 17:19 244 2 gusting 7 16.7
2016-Aug-22 17:09 236 0 gusting 7 16.7
2016-Aug-22 16:59 226 0 gusting 5 17.2
2016-Aug-22 16:49 252 17.2
2016-Aug-22 16:39 252 1 gusting 6 17.8
2016-Aug-22 16:29 236 0 gusting 6 17.8
2016-Aug-22 16:19 240 1 gusting 5 18.3
2016-Aug-22 16:09 233 0 gusting 10 18.3